Tracking 31027 objects as of 19-Jul-2025
HD Live streaming from Space Station
objects crossing your sky now

ATLAS 5 CENTAUR DEB

Track ATLAS 5 CENTAUR DEB now!


NORAD ID: 44645
Int'l Code: 2018-079F
Perigee: 8,414.4 km
Apogee: 33,952.9 km
Inclination: 13.1 °
Period: 758.7 minutes
Semi major axis: 27554 km
RCS: Unknown
Launch date: October 17, 2018
Source: United States (US)
Launch site: AIR FORCE EASTERN TEST RANGE (AFETR)

Note: This is SATELLITE DEBRIS
Your satellite tracking list
FENGYUN 1C DEB
Track 1 satellite(s)




NASA's NSSDC Master Catalog

Two Line Element Set (TLE):
1 44645U 18079F   25198.83760313 -.00000101  00000-0  00000-0 0  9997
2 44645  13.0994  46.8814 4634154 295.3520  24.1099  1.89806268 46693
Source of the keplerian elements: AFSPC